Regional Weather Roundup
Issued by NWS

Home | Current Version | Previous Version | Graphics & Text | Print | Product List | Glossary On
Versions: 1 2 3 4 5 6 7 8 9 10 11 12 13 14 15 16 17 18 19 20 21 22 23 24 25 26 27 28 29 30 31 32 33 34 35 36 37 38 39 40 41 42 43 44 45 46 47 48 49 50
000
ASUS43 KMPX 300910
RWRMN
WEATHER ROUNDUP FOR MINNESOTA
NATIONAL WEATHER SERVICE TWIN CITIES/CHANHASSEN MN
400 AM CDT SAT AUG 30 2014


NOTE: "FAIR" INDICATES FEW OR NO CLOUDS BELOW 12,000 FEET WITH NO
SIGNIFICANT WEATHER AND/OR OBSTRUCTIONS TO VISIBILITY. N/A MEANS
CURRENT SKY AND/OR WEATHER CONDITIONS ARE NOT AVAILABLE.

MNZ060>063-068>070-301000-
   Twin Cities Metro

CITY           SKY/WX    TMP DP  RH WIND       PRES   REMARKS
TWIN CITIES    CLOUDY    68  68 100 N8        29.76R
ST PAUL        LGT RAIN  68  67  96 N6        29.76R
CRYSTAL        CLOUDY    69  65  86 N7        29.76R
BLAINE         CLOUDY    70  68  94 N6        29.77R
LAKEVILLE      CLOUDY    64  64 100 W3        29.76S
EDEN PRAIRIE   CLOUDY    69  67  93 NW5       29.76R
SOUTH ST PAUL  LGT RAIN  68  66  94 CALM      29.76R
LAKE ELMO      RAIN      66  66 100 CALM      29.77R
$$
MNZ001>005-007-008-013>017-022>024-027-028-301000-
   Northwest Minnesota

CITY           SKY/WX    TMP DP  RH WIND       PRES   REMARKS
BEMIDJI        CLOUDY    58  55  89 N6        29.87S
HALLOCK        CLEAR     46  45  93 N6        29.94S
ROSEAU         CLEAR     48  45  87 N6        29.93R
WARROAD        CLEAR     50  46  87 NW6       29.93R
THIEF RVR FALL CLEAR     54  50  87 N9        29.91S
CROOKSTON      CLEAR     52  48  87 N6        29.93R
FOSSTON        CLOUDY    57  54  88 N9        29.90S
DETROIT LAKES  CLOUDY    61  55  82 N6        29.88S
MOORHEAD       CLOUDY    59  59 100 N9        29.89S
PARK RAPIDS    CLOUDY    60  59  96 N7        29.85R
MAHNOMEN       CLOUDY    58  57  94 N8        29.87S
$$
MNZ006-009>011-018-025>026-301000-
   North Central Minnesota

CITY           SKY/WX    TMP DP  RH WIND       PRES   REMARKS
BAUDETTE       MOCLDY    55  53  93 CALM      29.89S
FLAG ISLAND    CLEAR     59  54  82 N14       29.91R
INTL FALLS     PTCLDY    57  54  89 N9        29.87R
WASKISH        CLOUDY    57  55  94 N8        29.88R
BIG FORK       CLOUDY    57  57 100 N6        29.86R FOG
LONGVILLE      CLOUDY    63  63 100 CALM      29.83R
GRAND RAPIDS   CLOUDY    64  61  88 N5        29.82S
CRANE LAKE     CLOUDY    57  55  94 N6        29.87R
ORR            CLOUDY    59  57  94 CALM      29.83R FOG
COOK           DRIZZLE   61  61 100 N3        29.84R
WALKER         CLOUDY    58  57  97 N6        29.85S
$$
MNZ012-019>021-037-301000-
   Northeast Minnesota

CITY           SKY/WX    TMP DP  RH WIND       PRES   REMARKS
DULUTH         CLOUDY    62  59  90 NE7       29.81R
ELY            MOCLDY    57  55  94 CALM      29.82F
HIBBING        CLOUDY    62  60  93 N3        29.82S
EVELETH        MOCLDY    59  59 100 CALM      29.83S
DULUTH HARBOR  CLOUDY    63  61  94 CALM      29.80R
TWO HARBORS    CLOUDY    61  55  82 CALM      29.79S
SILVER BAY     CLOUDY    57  57 100 CALM      29.79S
GRAND MARAIS     N/A     57  56  96 CALM      29.78F
G MARAIS ARPRT CLOUDY    55  52  88 N7        29.82F
$$
MNZ029>031-032-039>041-046>048-054>057-064-301000-
   West Central Minnesota

CITY           SKY/WX    TMP DP  RH WIND       PRES   REMARKS
FERGUS FALLS   CLOUDY    61  61 100 N6        29.86R
WHEATON        CLOUDY    57  55  94 NW10      29.89R
MORRIS         CLOUDY    63  61  94 NW14      29.84S FOG
ALEXANDRIA     CLOUDY    66  64  93 NW7       29.84S
ELBOW LAKE     CLOUDY    61  61  99 NW9       29.85R FOG
WADENA         CLOUDY    63  63 100 N10       29.84R
GLENWOOD       PTCLDY    64  63  94 W6        29.84R
APPLETON       CLOUDY    63  61  94 NW10      29.85R
BENSON         CLOUDY    63  63 100 N9        29.84R FOG
ORTONVILLE     CLOUDY    61  57  88 NW9       29.87R
MADISON        MOCLDY    64  63  94 NW10      29.87R
WILLMAR        MOCLDY    66  64  94 NW8       29.83R
$$
MNZ033>034-036-042>043-049>051-058-059-301000-
   Central Minnesota

CITY           SKY/WX    TMP DP  RH WIND       PRES   REMARKS
ST CLOUD       CLOUDY    66  64  93 CALM      29.80R FOG
SAUK CENTRE    CLOUDY    64  64 100 N5        29.82S
PAYNESVILLE    HVY RAIN  63  63 100 CALM      29.82R
AITKIN         CLOUDY    64  59  82 CALM      29.80S
PINE RIVER     CLOUDY    64  64 100 N7        29.86S
BRAINERD       CLOUDY    63  63 100 N3        29.81F FOG
STAPLES        CLOUDY    64  63  94 N8        29.83R
LONG PRAIRIE   CLOUDY    63  63 100 NW3       29.83R
LITTLE FALLS   MOCLDY    64  63  94 CALM      29.81R
LITCHFIELD     CLOUDY    66  66 100 NW6       29.81S
BUFFALO        CLOUDY    67  65  93 NW3       29.80R
MAPLE LAKE     CLOUDY    68  67  97 N3        29.80S
$$
MNZ037-044-045-052-053-301000-
   East Central Minnesota

CITY           SKY/WX    TMP DP  RH WIND       PRES   REMARKS
PRINCETON      CLOUDY    66  64  94 NW5       29.80R
MORA           CLOUDY    63  63 100 CALM      29.81R
CAMBRIDGE      MOCLDY    68  61  77 CALM      29.77R
RUSH CITY      CLOUDY    65  63  94 CALM      29.78S
MOOSE LAKE     CLOUDY    63  61  94 CALM      29.78R FOG
HINCKLEY       CLOUDY    64  63  94 N5        29.79S
CLOQUET        CLOUDY    63  61  94 N3        29.80F FOG
MCGREGOR       CLOUDY    63  61  94 CALM      29.81S VSB 1/2
$$
MNZ071>073-080-081-089-090-097-098-301000-
   Southwest Minnesota

CITY           SKY/WX    TMP DP  RH WIND       PRES   REMARKS
MONTEVIDEO     CLOUDY    64  64 100 N10       29.85R FOG
GRANITE FALLS  CLOUDY    65  65 100 W9        29.85R FOG
CANBY          CLOUDY    62  61  97 NW9G17    29.88R FOG
MARSHALL       CLOUDY    63  61  94 N14       29.84S
REDWOOD FALLS  CLOUDY    66  65  96 NW9       29.81S
OLIVIA         CLOUDY    68  64  88 NW6       29.81R
PIPESTONE      CLOUDY    64  63  94 N5        29.87S
WINDOM         PTCLDY    64  63  94 W3        29.84R
WORTHINGTON    PTCLDY    64  64 100 NW5       29.86R
JACKSON        CLOUDY    66  63  88 NW6       29.84R FOG
TRACY          FOG       66  65  97 NW10G16   29.85R VSB 1
SLAYTON        CLOUDY    65  65 100 CALM      29.87R FOG
$$
MNZ065>067-074>077-082>085-091>093-301000-
   South Central Minnesota

CITY           SKY/WX    TMP DP  RH WIND       PRES   REMARKS
MANKATO        CLOUDY    66  63  88 W8        29.78S
NEW ULM        MOCLDY    64  64 100 NW5       29.80S
ST JAMES       CLOUDY    66  66 100 W6        29.81S FOG
FAIRMONT       CLOUDY    64  55  72 NW8       29.81R
GLENCOE        CLOUDY    68  65  92 W5        29.79R FOG
FARIBAULT      CLOUDY    70  63  78 CALM      29.77R
OWATONNA       DRIZZLE   66  64  94 W3        29.77S
WASECA         DRIZZLE   64  61  88 CALM      29.79S
ALBERT LEA     CLOUDY    66  66 100 W6        29.77F FOG
$$
MNZ078>079-086>088-094>096-301000-
   Southeast Minnesota

CITY           SKY/WX    TMP DP  RH WIND       PRES   REMARKS
ROCHESTER      LGT RAIN  66  64  93 SW7       29.77S
RED WING       CLOUDY    66  66 100 CALM      29.74S
STANTON        CLOUDY    67  65  93 CALM      29.75S
DODGE CENTER   LGT RAIN  66  66 100 W6        29.77R
WINONA         CLOUDY    70  68  94 CALM      29.74S
AUSTIN         RAIN      66  64  94 W6        29.77S
PRESTON        CLOUDY    65  65 100 CALM      29.77R FOG
$$
ABBREVIATIONS USED IN REMARKS
   TC - TEMPERATURES IN CELSIUS
  WCI - WIND CHILL INDEX
   HX - HEAT INDEX
  VSB - VISIBILITY
$$



USA.gov is the U.S. government's official web portal to all federal, state and local government web resources and services.